Overview Statistics Trail Chart Weather Telemetry Raw packets
 

This is the latest recevied weather packets stored in our database for station/object KI5RAB. If no packets are shown the sender has not sent any weather packets the latest 10 day(s).

<< 44 45 46 47 48 49 50 >>
Time Temp. Humidity Pressure Rain* Wind** Luminosity Snow
1788363827 31.11° C 71% 1019.5 hPa 0 mm - 494 W/m² -
1788363525 31.11° C 72% 1019.4 hPa 0 mm - 479 W/m² -
1788363250 30.56° C 72% 1019.5 hPa 0 mm - 461 W/m² -
1788362921 31.11° C 73% 1019.6 hPa 0 mm - 448 W/m² -
1788362617 30.56° C 73% 1019.5 hPa 0 mm - 440 W/m² -
1788362312 30° C 74% 1019.6 hPa 0 mm - 420 W/m² -
1788362006 29.44° C 76% 1019.6 hPa 0 mm - 406 W/m² -
1788361701 29.44° C 76% 1019.6 hPa 0 mm - 391 W/m² -
1788361398 29.44° C 76% 1019.7 hPa 0 mm - 382 W/m² -
1788361097 29.44° C 78% 1019.5 hPa 0 mm - 364 W/m² -
1788360792 29.44° C 77% 1019.5 hPa 0 mm - 343 W/m² -
1788360488 29.44° C 77% 1019.6 hPa 0 mm - 331 W/m² -
1788360184 30° C 78% 1019.7 hPa 0 mm - 318 W/m² -
1788359878 29.44° C 78% 1019.7 hPa 0 mm - 303 W/m² -
1788359573 28.89° C 79% 1019.7 hPa 0 mm - 292 W/m² -
1788359269 28.89° C 81% 1019.5 hPa 0 mm - 276 W/m² -
1788358964 28.89° C 81% 1019.5 hPa 0 mm - 259 W/m² -
1788358664 28.89° C 80% 1019.6 hPa 0 mm - 246 W/m² -
1788358360 28.33° C 81% 1019.5 hPa 0 mm - 232 W/m² -
1788358055 28.89° C 81% 1019.7 hPa 0 mm - 223 W/m² -
1788357749 28.33° C 82% 1019.7 hPa 0 mm - 217 W/m² -
1788357449 28.33° C 84% 1019.6 hPa 0 mm - 183 W/m² -
1788357145 28.33° C 83% 1019.5 hPa 0 mm - 171 W/m² -
1788356844 27.78° C 85% 1019.4 hPa 0 mm - 154 W/m² -
1788356539 27.78° C 85% 1019.3 hPa 0 mm - 134 W/m² -

* Rain latest hour (hover to see other rain measurements)
** Current wind speed in m/s (hover to see current wind gust speed)